Date,Time,Wetness (Wet Dry or Ice),Wind Speed (m/s),Temperature (C),Humidity (%),Pressure (mb),Radiation (W/m^2)
2021-12-02,06:25:00,WET,6.95,2.05,100.0,776.00,3.6
2021-12-02,06:30:00,WET,4.87,1.83,100.0,776.00,3.7
2021-12-02,06:35:00,WET,5.00,1.55,100.0,776.00,3.8
2021-12-02,06:40:00,WET,4.17,1.50,100.0,776.00,4.6
2021-12-02,06:45:00,WET,4.80,1.65,100.0,776.00,4.7
2021-12-02,06:50:00,WET,5.83,1.90,100.0,776.00,4.6
2021-12-02,06:55:00,WET,6.65,1.55,100.0,776.00,4.6
2021-12-02,07:00:00,WET,4.10,1.50,100.0,776.00,5.0
2021-12-02,07:05:00,WET,5.50,1.95,100.0,776.00,4.7
2021-12-02,07:10:00,WET,5.43,1.73,100.0,776.00,3.8
2021-12-02,07:15:00,WET,4.20,1.55,100.0,776.00,4.2
2021-12-02,07:20:00,WET,6.13,1.43,100.0,776.00,4.2
2021-12-02,07:25:00,WET,8.15,1.70,100.0,776.00,3.9
2021-12-02,07:30:00,WET,8.73,2.13,100.0,776.00,4.6
2021-12-02,07:35:00,WET,5.90,1.75,100.0,776.00,4.6
2021-12-02,07:40:00,WET,6.70,1.47,100.0,776.00,4.9
2021-12-02,07:45:00,WET,6.70,1.50,100.0,776.00,5.5
2021-12-02,07:50:00,WET,6.03,1.23,100.0,776.00,8.2
2021-12-02,07:55:00,WET,4.25,0.90,100.0,776.00,8.2
2021-12-02,08:00:00,WET,8.00,0.80,100.0,776.00,10.1
2021-12-02,08:05:00,WET,6.45,0.85,100.0,776.00,12.1
2021-12-02,08:10:00,WET,8.20,0.97,100.0,776.00,13.0
2021-12-02,08:15:00,WET,6.95,1.20,100.0,776.50,15.1
2021-12-02,08:20:00,WET,7.03,1.50,94.0,776.33,17.3
2021-12-02,08:25:00,WET,5.10,1.80,83.0,776.00,18.5
2021-12-02,08:30:00,WET,7.20,1.80,91.3,776.67,69.0
2021-12-02,08:35:00,WET,6.00,2.05,77.0,777.00,96.8
2021-12-02,08:40:00,WET,7.27,1.93,81.3,776.67,124.1
2021-12-02,08:45:00,WET,7.10,2.55,65.5,777.00,135.6
2021-12-02,08:50:00,WET,6.93,2.00,82.3,776.33,158.4
2021-12-02,08:55:00,WET,5.55,2.85,58.5,776.50,176.4
2021-12-02,09:00:00,WET,5.17,2.57,69.7,777.00,202.7
2021-12-02,09:05:00,WET,5.80,1.90,83.0,777.00,216.9
2021-12-02,09:10:00,WET,7.13,2.23,66.3,776.67,240.3
2021-12-02,09:15:00,WET,7.50,1.90,73.5,777.00,256.8
2021-12-02,09:20:00,WET,6.53,2.17,57.3,777.00,280.5
2021-12-02,09:25:00,WET,5.95,2.30,57.5,777.00,297.9
2021-12-02,09:30:00,WET,7.80,2.07,56.0,777.00,319.1
2021-12-02,09:35:00,DRY,5.55,2.35,44.5,777.00,339.1
2021-12-02,09:40:00,DRY,5.97,2.50,45.0,777.00,359.0
2021-12-02,09:45:00,DRY,6.05,2.55,37.5,777.00,377.3
2021-12-02,09:50:00,DRY,6.50,2.87,38.0,777.00,395.6
2021-12-02,09:55:00,DRY,4.85,2.75,42.5,777.00,414.2
2021-12-02,10:00:00,WET,5.47,1.80,61.3,777.00,431.0
2021-12-02,10:05:00,DRY,8.85,1.95,43.5,777.00,447.0
2021-12-02,10:10:00,DRY,8.07,2.63,36.0,777.00,470.9
2021-12-02,10:15:00,DRY,6.10,3.05,31.5,777.00,492.5
2021-12-02,10:20:00,DRY,3.93,3.07,33.7,777.00,530.2
2021-12-02,10:25:00,DRY,5.65,3.00,37.5,777.00,559.2
2021-12-02,10:30:00,DRY,7.83,3.20,35.0,777.00,575.2
2021-12-02,10:35:00,DRY,8.15,3.05,37.0,777.00,589.9
2021-12-02,10:40:00,DRY,5.93,3.20,36.0,777.00,603.9
2021-12-02,10:45:00,DRY,6.95,3.35,33.0,777.00,617.0
2021-12-02,10:50:00,DRY,6.17,3.33,32.0,777.00,629.1
2021-12-02,10:55:00,DRY,7.60,3.45,30.0,777.00,642.0
2021-12-02,11:00:00,DRY,7.07,3.53,29.7,777.33,654.0
2021-12-02,11:05:00,DRY,5.90,3.60,28.5,777.00,664.7
2021-12-02,11:10:00,DRY,6.43,3.27,45.3,777.00,674.8
2021-12-02,11:15:00,DRY,6.10,2.90,56.5,777.00,684.6
2021-12-02,11:20:00,WET,8.23,2.80,62.0,777.00,693.7
2021-12-02,11:25:00,WET,7.00,2.50,72.0,777.00,702.8
2021-12-02,11:30:00,WET,7.40,2.20,77.0,777.00,691.9
2021-12-02,11:35:00,WET,5.15,2.15,77.0,777.00,720.5
2021-12-02,11:40:00,DRY,6.87,2.77,46.7,777.00,727.2
2021-12-02,11:45:00,DRY,7.15,2.95,42.0,777.00,734.3
2021-12-02,11:50:00,DRY,6.30,2.83,48.0,777.00,741.1
2021-12-02,11:55:00,WET,4.60,2.40,60.0,777.00,747.6
2021-12-02,12:00:00,WET,6.70,2.57,61.7,777.00,752.3
2021-12-02,12:05:00,DRY,4.05,3.25,53.5,777.00,757.1
2021-12-02,12:10:00,DRY,6.57,3.13,57.0,777.00,762.7
2021-12-02,12:15:00,DRY,7.10,2.80,61.0,777.00,767.0
2021-12-02,12:20:00,DRY,6.83,2.97,57.7,777.00,770.7
2021-12-02,12:25:00,DRY,6.05,3.20,58.0,777.00,773.6
2021-12-02,12:30:00,WET,7.03,3.20,58.3,777.00,777.3
2021-12-02,12:35:00,WET,5.45,3.35,56.0,777.00,780.2
2021-12-02,12:40:00,WET,7.73,3.40,57.7,777.00,782.5
2021-12-02,12:45:00,DRY,5.75,3.70,54.0,777.00,785.0
2021-12-02,12:50:00,DRY,6.40,3.70,54.7,776.67,786.1
2021-12-02,12:55:00,WET,7.85,3.35,59.5,776.00,786.1
2021-12-02,13:00:00,WET,6.30,3.70,53.7,776.00,786.4
2021-12-02,13:05:00,DRY,7.40,3.75,52.0,776.00,785.6
2021-12-02,13:10:00,DRY,7.33,3.77,54.3,776.00,784.2
2021-12-02,13:15:00,DRY,5.80,4.00,52.0,776.00,784.3
2021-12-02,13:20:00,WET,6.53,3.70,56.0,776.00,781.0
2021-12-02,13:25:00,WET,9.50,3.50,68.0,776.00,730.9
2021-12-02,13:30:00,WET,5.75,2.75,88.0,776.00,493.5
2021-12-02,13:35:00,WET,6.90,2.30,100.0,776.00,508.0
2021-12-02,13:40:00,WET,8.23,2.23,100.0,776.00,657.1
2021-12-02,13:45:00,WET,8.05,2.45,100.0,776.00,598.8
2021-12-02,13:50:00,WET,7.77,2.37,100.0,775.67,436.0
2021-12-02,13:55:00,WET,9.45,2.40,100.0,775.00,835.8
2021-12-02,14:00:00,WET,8.30,2.27,100.0,775.00,512.7
2021-12-02,14:05:00,WET,9.00,2.30,100.0,775.00,786.8
2021-12-02,14:10:00,WET,9.37,2.20,100.0,775.00,748.8
2021-12-02,14:15:00,WET,10.35,2.15,100.0,775.00,554.0
2021-12-02,14:20:00,WET,9.20,2.23,100.0,775.00,622.1
2021-12-02,14:25:00,WET,9.90,2.00,100.0,775.00,561.6
2021-12-02,14:30:00,WET,9.10,2.07,100.0,775.00,596.8
2021-12-02,14:35:00,WET,8.75,2.10,100.0,775.00,677.0
2021-12-02,14:40:00,WET,9.00,2.27,93.7,775.00,683.2
2021-12-02,14:45:00,WET,11.85,2.30,94.5,775.00,673.8
2021-12-02,14:50:00,WET,8.37,2.03,99.0,775.00,701.7
2021-12-02,14:55:00,WET,6.95,1.80,100.0,775.00,653.2
2021-12-02,15:00:00,WET,8.47,2.07,97.0,775.00,641.5
2021-12-02,15:05:00,WET,8.10,2.15,100.0,775.00,460.2
2021-12-02,15:10:00,WET,7.27,2.53,100.0,775.00,415.7
2021-12-02,15:15:00,WET,5.70,2.90,100.0,775.00,303.5
2021-12-02,15:20:00,WET,8.53,2.73,100.0,775.00,423.3
2021-12-02,15:25:00,WET,10.70,2.95,100.0,775.00,365.9
2021-12-02,15:30:00,WET,9.70,3.30,100.0,775.00,324.3
2021-12-02,15:35:00,WET,8.75,3.50,100.0,775.00,407.5
2021-12-02,15:40:00,WET,7.53,3.53,100.0,775.00,366.0
2021-12-02,15:45:00,WET,10.05,3.60,100.0,775.00,252.6
2021-12-02,15:50:00,WET,8.90,3.43,100.0,775.00,356.8
2021-12-02,15:55:00,WET,5.40,3.60,100.0,775.00,320.8
2021-12-02,16:00:00,WET,7.93,3.53,100.0,775.00,320.5
2021-12-02,16:05:00,WET,7.40,3.50,100.0,775.00,206.0
2021-12-02,16:10:00,WET,6.83,3.07,100.0,775.00,444.4
2021-12-02,16:15:00,WET,8.00,2.80,100.0,775.00,190.8
2021-12-02,16:20:00,WET,8.80,2.60,100.0,775.00,355.5
2021-12-02,16:25:00,WET,6.95,2.60,100.0,775.00,247.6
2021-12-02,16:30:00,WET,9.23,2.33,100.0,775.00,286.4
2021-12-02,16:35:00,WET,9.30,2.05,100.0,775.00,331.8
2021-12-02,16:40:00,WET,7.57,1.77,100.0,775.00,306.7
2021-12-02,16:45:00,DRY,8.10,1.90,99.0,775.00,195.0
2021-12-02,16:50:00,DRY,8.20,2.00,100.0,775.00,290.7
2021-12-02,16:55:00,WET,9.55,2.50,100.0,775.00,125.4
2021-12-02,17:00:00,WET,7.73,2.83,100.0,775.00,139.7
2021-12-02,17:05:00,WET,10.20,2.70,100.0,775.00,199.1
2021-12-02,17:10:00,WET,10.03,2.70,100.0,775.00,79.8
2021-12-02,17:15:00,WET,8.65,2.25,100.0,775.00,173.6
2021-12-02,17:20:00,WET,10.67,2.07,100.0,775.00,127.6
2021-12-02,17:25:00,DRY,10.45,2.15,77.0,775.00,157.2
2021-12-02,17:30:00,DRY,9.93,2.30,60.0,775.00,137.9
2021-12-02,17:35:00,DRY,11.35,2.50,52.5,775.00,119.7
2021-12-02,17:40:00,WET,9.40,1.50,95.7,775.00,99.4
2021-12-02,17:45:00,WET,9.65,1.50,100.0,775.00,32.0
2021-12-02,17:50:00,WET,9.20,1.77,98.0,775.00,67.3
2021-12-02,17:55:00,WET,8.70,1.50,100.0,775.00,68.3
2021-12-02,18:00:00,WET,10.93,1.93,98.3,775.00,26.3
2021-12-02,18:05:00,WET,8.70,1.40,100.0,775.00,23.5
2021-12-02,18:10:00,WET,8.17,1.37,100.0,775.00,17.5
2021-12-02,18:15:00,WET,11.45,1.35,97.5,775.00,14.5
2021-12-02,18:20:00,WET,8.87,1.47,99.7,775.00,5.2
2021-12-02,18:25:00,WET,10.80,2.00,100.0,775.50,4.3
2021-12-02,18:30:00,WET,9.63,2.10,100.0,775.33,4.1
2021-12-02,18:35:00,WET,8.65,1.85,100.0,775.50,3.8
2021-12-02,18:40:00,WET,9.70,2.23,100.0,775.00,4.0
2021-12-02,18:45:00,WET,10.25,1.95,100.0,775.50,3.7
2021-12-02,18:50:00,WET,8.77,1.60,100.0,776.00,3.8
2021-12-02,18:55:00,WET,8.20,1.15,100.0,776.00,3.9
2021-12-02,19:00:00,WET,9.90,1.67,100.0,776.00,4.6
2021-12-02,19:05:00,WET,7.85,1.50,100.0,776.00,3.7
2021-12-02,19:10:00,WET,8.13,2.23,100.0,776.00,6.4
2021-12-02,19:15:00,WET,6.50,1.60,100.0,776.00,5.2
2021-12-02,19:20:00,WET,6.07,1.03,100.0,776.00,4.1
2021-12-02,19:25:00,WET,9.40,0.90,100.0,776.00,5.2
2021-12-02,19:30:00,WET,5.80,0.63,100.0,776.00,4.3
2021-12-02,19:35:00,WET,5.30,0.45,100.0,776.00,2.7
2021-12-02,19:40:00,WET,5.77,0.93,100.0,776.00,1.5
2021-12-02,19:45:00,WET,5.30,0.65,96.5,776.00,1.6
2021-12-02,19:50:00,WET,6.47,0.83,94.7,776.00,1.2
2021-12-02,19:55:00,WET,8.40,0.70,91.0,776.00,1.3
2021-12-02,20:00:00,DRY,7.20,1.27,52.3,776.00,1.1
2021-12-02,20:05:00,DRY,11.05,1.65,47.5,776.00,1.0
2021-12-02,20:10:00,DRY,7.50,1.87,43.3,776.00,1.3
2021-12-02,20:15:00,DRY,8.40,2.00,46.0,776.00,1.4
2021-12-02,20:20:00,WET,6.13,1.57,70.3,776.00,1.4
2021-12-02,20:25:00,WET,9.50,0.95,89.0,776.00,1.2
2021-12-02,20:30:00,WET,6.73,0.57,100.0,776.00,1.4
2021-12-02,20:35:00,WET,7.50,0.70,100.0,776.00,2.0
2021-12-02,20:40:00,WET,10.87,0.87,100.0,776.00,2.9
2021-12-02,20:45:00,WET,7.70,0.80,100.0,776.00,3.1
2021-12-02,20:50:00,WET,9.03,1.80,100.0,776.00,3.5
2021-12-02,20:55:00,WET,10.25,1.95,100.0,776.00,5.1
2021-12-02,21:00:00,WET,9.30,1.27,100.0,776.00,4.0
2021-12-02,21:05:00,WET,8.95,1.30,100.0,776.00,4.8
2021-12-02,21:10:00,WET,11.90,0.63,100.0,775.00,3.9
2021-12-02,21:15:00,WET,10.85,1.40,81.0,775.50,1.0
2021-12-02,21:20:00,WET,11.40,1.80,56.0,776.00,1.4
2021-12-02,21:25:00,WET,11.00,2.45,39.0,776.00,1.1
2021-12-02,21:30:00,WET,11.37,2.20,52.7,775.67,1.2
2021-12-02,21:35:00,WET,9.55,1.60,81.0,775.50,1.5
2021-12-02,21:40:00,WET,10.60,1.37,88.7,776.00,1.3
2021-12-02,21:45:00,WET,12.65,0.70,100.0,776.00,1.5
2021-12-02,21:50:00,WET,9.07,0.73,100.0,775.67,1.7
2021-12-02,21:55:00,WET,13.05,1.40,75.5,776.00,1.0
2021-12-02,22:00:00,WET,13.90,2.13,52.3,776.00,1.0
2021-12-02,22:05:00,WET,12.70,2.45,39.5,776.00,1.6
2021-12-02,22:10:00,DRY,12.83,3.00,26.3,775.67,1.1
2021-12-02,22:15:00,DRY,14.55,3.25,20.0,776.00,1.1
2021-12-02,22:20:00,DRY,10.23,3.47,20.7,776.00,1.1
2021-12-02,22:25:00,DRY,13.55,3.35,23.0,775.50,1.3
2021-12-02,22:30:00,DRY,11.83,3.47,21.3,776.00,1.5
2021-12-02,22:35:00,DRY,12.75,3.60,20.5,776.00,1.2
2021-12-02,22:40:00,DRY,9.30,3.17,25.0,776.00,1.1
2021-12-02,22:45:00,DRY,10.90,3.35,20.5,776.00,1.0
2021-12-02,22:50:00,DRY,11.40,3.40,21.7,776.00,1.0
2021-12-02,22:55:00,DRY,10.30,3.05,23.5,776.00,1.1
2021-12-02,23:00:00,DRY,10.60,3.43,18.7,776.00,1.4
2021-12-02,23:05:00,DRY,10.20,3.75,17.0,776.00,1.2
2021-12-02,23:10:00,DRY,11.13,3.57,17.3,776.00,1.1
2021-12-02,23:15:00,DRY,9.80,3.70,16.0,776.00,1.1
2021-12-02,23:20:00,DRY,10.37,3.53,17.7,776.00,1.3
2021-12-02,23:25:00,DRY,7.30,3.55,19.0,776.00,1.3
2021-12-02,23:30:00,DRY,9.30,3.73,16.3,775.67,1.4
2021-12-02,23:35:00,DRY,11.80,4.05,17.5,776.00,1.1
2021-12-02,23:40:00,DRY,11.70,4.03,22.7,775.33,1.2
2021-12-02,23:45:00,DRY,10.05,4.20,27.5,776.00,1.2
2021-12-02,23:50:00,DRY,10.07,4.20,24.7,776.00,1.0
2021-12-02,23:55:00,DRY,7.80,4.30,20.5,776.00,1.0
2021-12-03,00:00:00,DRY,10.83,4.10,24.0,776.00,0.7
2021-12-03,00:05:00,WET,11.75,3.45,44.0,776.00,1.1
2021-12-03,00:10:00,WET,11.43,3.07,69.0,776.00,1.3
2021-12-03,00:15:00,WET,9.20,3.10,54.5,776.00,1.4
2021-12-03,00:20:00,WET,10.93,2.70,72.7,776.00,1.0
2021-12-03,00:25:00,WET,8.40,2.40,70.0,776.00,1.9
2021-12-03,00:30:00,WET,8.77,1.87,99.7,776.00,1.4
2021-12-03,00:35:00,WET,8.50,2.70,84.0,776.00,1.3
2021-12-03,00:40:00,WET,9.73,3.27,62.7,776.00,1.6
2021-12-03,00:45:00,WET,7.25,4.15,34.5,776.00,1.0
2021-12-03,00:50:00,DRY,10.03,3.60,33.3,776.00,1.3
2021-12-03,00:55:00,DRY,11.65,4.35,26.0,776.00,0.9
2021-12-03,01:00:00,DRY,9.20,5.03,25.0,775.67,1.3
2021-12-03,01:05:00,DRY,9.65,5.20,26.0,776.00,1.1
2021-12-03,01:10:00,DRY,10.10,5.13,27.7,776.00,1.1
2021-12-03,01:15:00,DRY,8.10,4.95,27.0,775.50,1.1
2021-12-03,01:20:00,DRY,8.23,5.07,34.0,776.00,1.2
2021-12-03,01:25:00,WET,9.85,5.10,40.0,776.00,1.3
2021-12-03,01:30:00,WET,11.37,5.10,36.3,775.67,0.9
2021-12-03,01:35:00,DRY,8.35,5.35,33.0,776.00,0.8
2021-12-03,01:40:00,DRY,8.83,5.27,33.3,776.00,1.1
2021-12-03,01:45:00,DRY,10.05,5.20,30.0,776.00,1.5
2021-12-03,01:50:00,DRY,7.10,5.13,31.0,776.00,1.2
2021-12-03,01:55:00,DRY,9.35,5.05,32.5,776.00,1.3
2021-12-03,02:00:00,WET,11.63,5.13,37.7,775.67,0.6
2021-12-03,02:05:00,WET,10.40,5.30,41.0,776.00,1.1
2021-12-03,02:10:00,WET,8.73,5.60,42.3,775.67,1.0
2021-12-03,02:15:00,WET,9.30,5.40,45.5,776.00,1.2
2021-12-03,02:20:00,WET,7.33,5.27,47.0,775.67,0.9
2021-12-03,02:25:00,WET,8.40,4.65,47.0,775.00,1.2
2021-12-03,02:30:00,WET,8.93,4.97,42.3,775.33,1.5
2021-12-03,02:35:00,WET,8.95,5.25,38.5,775.00,1.1
2021-12-03,02:40:00,WET,10.43,5.00,38.3,775.00,1.9
2021-12-03,02:45:00,WET,6.70,5.00,40.5,775.00,1.8
2021-12-03,02:50:00,WET,8.83,4.80,42.0,775.00,1.1
2021-12-03,02:55:00,WET,9.95,4.95,39.5,775.00,1.2
2021-12-03,03:00:00,WET,7.43,4.93,39.0,775.00,0.8
2021-12-03,03:05:00,WET,5.60,5.00,36.5,775.00,1.1
2021-12-03,03:10:00,WET,7.47,5.07,35.7,775.00,1.1
2021-12-03,03:15:00,WET,9.20,5.10,35.5,775.00,1.2
2021-12-03,03:20:00,WET,7.43,4.83,36.0,775.00,0.9
2021-12-03,03:25:00,DRY,7.70,5.05,31.0,775.00,1.1
2021-12-03,03:30:00,DRY,8.67,4.87,31.3,775.00,1.0
2021-12-03,03:35:00,DRY,8.90,4.90,30.5,775.00,1.0
2021-12-03,03:40:00,DRY,7.73,5.10,28.7,775.00,1.1
2021-12-03,03:45:00,DRY,7.30,5.15,30.0,775.00,1.1
2021-12-03,03:50:00,WET,7.70,5.10,34.7,775.00,1.3
2021-12-03,03:55:00,WET,7.10,5.00,43.5,775.00,0.8
2021-12-03,04:00:00,WET,9.80,4.90,45.7,775.00,1.0
2021-12-03,04:05:00,WET,8.90,4.85,48.5,775.00,1.4
2021-12-03,04:10:00,WET,9.60,4.77,50.7,775.00,1.1
2021-12-03,04:15:00,WET,10.15,4.15,59.0,775.00,1.4
2021-12-03,04:20:00,WET,10.10,3.07,88.3,775.00,1.6
2021-12-03,04:25:00,WET,10.45,2.30,100.0,775.00,1.3
2021-12-03,04:30:00,WET,10.53,3.07,91.3,775.00,1.2
2021-12-03,04:35:00,WET,11.55,3.60,68.0,775.00,0.9
2021-12-03,04:40:00,WET,10.93,4.23,58.7,774.67,1.0
2021-12-03,04:45:00,WET,12.20,4.45,57.0,774.00,1.1
2021-12-03,04:50:00,WET,8.83,4.40,56.7,774.33,1.2
2021-12-03,04:55:00,WET,9.05,4.75,51.5,774.00,1.1
2021-12-03,05:00:00,WET,8.50,4.33,58.3,774.00,1.1
2021-12-03,05:05:00,WET,10.90,4.40,55.0,774.00,0.3
2021-12-03,05:10:00,WET,8.93,4.57,52.7,774.00,0.9
2021-12-03,05:15:00,WET,9.50,4.45,56.5,774.00,0.6
2021-12-03,05:20:00,WET,11.40,4.07,59.7,774.00,1.1
2021-12-03,05:25:00,WET,10.35,4.30,57.5,774.00,1.1
2021-12-03,05:30:00,WET,9.77,4.47,57.7,774.33,1.2
2021-12-03,05:35:00,WET,12.45,4.60,56.0,774.00,1.2
2021-12-03,05:40:00,WET,10.10,4.43,54.0,774.00,1.1
2021-12-03,05:45:00,WET,12.00,4.70,50.0,774.00,1.2
2021-12-03,05:50:00,WET,8.93,4.73,48.7,774.00,1.0
2021-12-03,05:55:00,WET,9.40,4.30,53.5,774.00,1.1
2021-12-03,06:00:00,WET,11.00,4.40,57.3,774.00,1.2
2021-12-03,06:05:00,WET,10.20,5.00,55.0,774.00,0.7
2021-12-03,06:10:00,WET,11.70,4.43,67.3,774.67,1.3
2021-12-03,06:15:00,WET,8.00,3.00,100.0,774.00,1.4
2021-12-03,06:20:00,WET,12.07,3.27,89.7,774.00,1.3
2021-12-03,06:25:00,WET,9.35,3.15,92.5,774.50,1.4
2021-12-03,06:30:00,WET,10.00,3.17,85.0,774.00,1.1
2021-12-03,06:35:00,WET,13.25,3.45,75.5,774.00,1.0
2021-12-03,06:40:00,WET,10.10,3.43,77.7,774.00,0.8
2021-12-03,06:45:00,WET,7.40,2.65,88.5,774.00,0.9
2021-12-03,06:50:00,WET,9.73,2.83,81.3,774.00,1.2
2021-12-03,06:55:00,WET,9.50,3.10,79.5,774.00,1.8
2021-12-03,07:00:00,WET,8.13,2.73,78.0,774.00,0.9
2021-12-03,07:05:00,WET,12.30,3.15,56.5,774.00,0.8
2021-12-03,07:10:00,WET,10.43,3.77,46.7,774.00,1.4
2021-12-03,07:15:00,WET,10.70,3.90,47.0,774.00,1.2
2021-12-03,07:20:00,WET,11.90,4.27,48.7,774.67,1.0
2021-12-03,07:25:00,WET,9.80,4.70,43.0,774.50,1.4
2021-12-03,07:30:00,WET,9.03,4.33,45.0,774.67,1.5
2021-12-03,07:35:00,WET,6.90,4.35,39.5,775.00,2.4
2021-12-03,07:40:00,WET,10.90,4.57,38.3,774.67,3.9
2021-12-03,07:45:00,WET,7.55,4.35,38.5,774.50,5.3
2021-12-03,07:50:00,WET,8.07,4.03,44.7,775.00,7.6
2021-12-03,07:55:00,DRY,8.90,4.50,28.5,774.50,10.2
2021-12-03,08:00:00,DRY,11.03,4.47,31.0,775.00,12.9
2021-12-03,08:05:00,WET,10.55,3.55,43.0,775.00,14.6
2021-12-03,08:10:00,WET,10.77,3.03,52.0,775.00,16.7
2021-12-03,08:15:00,WET,11.60,3.90,45.5,774.50,18.6
2021-12-03,08:20:00,WET,7.77,4.47,32.7,775.00,20.9
2021-12-03,08:25:00,WET,12.10,3.90,41.5,775.00,23.2
2021-12-03,08:30:00,WET,10.60,4.10,38.0,775.00,102.3
2021-12-03,08:35:00,WET,8.10,4.20,45.0,775.00,173.1
2021-12-03,08:40:00,WET,8.40,4.07,46.3,775.00,191.7
2021-12-03,08:45:00,WET,9.40,3.40,64.0,775.00,164.9
2021-12-03,08:50:00,WET,8.30,2.53,80.7,775.00,184.7
2021-12-03,08:55:00,WET,10.00,2.40,93.0,775.00,201.1
2021-12-03,09:00:00,WET,8.23,2.60,100.0,775.00,166.3
2021-12-03,09:05:00,WET,8.10,3.10,100.0,775.00,106.2
2021-12-03,09:10:00,WET,10.10,2.73,100.0,775.00,259.1
2021-12-03,09:15:00,WET,8.30,2.85,95.0,775.00,291.1
2021-12-03,09:20:00,WET,10.03,2.80,92.3,775.00,227.7
2021-12-03,09:25:00,WET,7.30,3.25,100.0,775.00,175.7
2021-12-03,09:30:00,WET,8.43,3.73,100.0,775.00,183.4
2021-12-03,09:35:00,WET,7.55,3.65,100.0,775.00,242.8
2021-12-03,09:40:00,WET,6.97,3.47,100.0,775.00,318.1
2021-12-03,09:45:00,WET,10.00,3.80,82.0,775.00,408.6
2021-12-03,09:50:00,DRY,8.03,4.80,53.0,775.00,447.2
2021-12-03,09:55:00,DRY,11.35,5.25,38.5,775.00,467.7
2021-12-03,10:00:00,DRY,10.87,5.40,33.0,775.00,485.1
2021-12-03,10:05:00,DRY,10.05,5.20,36.0,775.00,502.4
2021-12-03,10:10:00,DRY,11.47,4.90,61.0,775.00,516.8
2021-12-03,10:15:00,WET,8.45,4.40,88.5,775.00,403.4
2021-12-03,10:20:00,WET,8.27,3.97,96.7,775.33,539.3
2021-12-03,10:25:00,WET,8.60,4.40,72.0,775.00,559.0
2021-12-03,10:30:00,DRY,10.00,5.07,56.3,775.33,575.4
2021-12-03,10:35:00,DRY,9.20,5.25,61.0,775.00,584.9
2021-12-03,10:40:00,DRY,7.60,5.40,61.7,775.00,602.1
2021-12-03,10:45:00,DRY,8.30,5.75,61.5,776.00,624.3
2021-12-03,10:50:00,DRY,9.87,5.13,68.0,775.00,625.7
2021-12-03,10:55:00,DRY,8.45,5.45,62.0,775.00,640.5
2021-12-03,11:00:00,WET,6.97,5.07,66.7,775.33,622.3
2021-12-03,11:05:00,DRY,9.65,5.70,28.0,775.50,643.2
2021-12-03,11:10:00,DRY,10.50,5.50,52.0,775.33,667.0
2021-12-03,11:15:00,DRY,11.05,5.35,56.5,775.50,678.2
2021-12-03,11:20:00,DRY,7.10,5.27,61.0,775.33,693.6
2021-12-03,11:25:00,DRY,10.15,4.70,71.5,775.00,658.5
2021-12-03,11:30:00,WET,7.70,4.87,79.7,775.00,688.2
2021-12-03,11:35:00,DRY,10.05,5.40,73.5,775.00,724.1
2021-12-03,11:40:00,DRY,8.70,5.37,64.3,775.00,730.8
2021-12-03,11:45:00,DRY,8.55,5.20,73.5,775.00,736.6
2021-12-03,11:50:00,DRY,8.00,5.43,64.3,775.33,744.0
2021-12-03,11:55:00,DRY,4.60,5.75,39.5,775.00,751.0
2021-12-03,12:00:00,DRY,7.37,5.57,52.3,775.33,753.4
2021-12-03,12:05:00,DRY,8.15,5.55,57.0,775.00,761.3
2021-12-03,12:10:00,DRY,7.90,5.50,48.3,775.00,766.7
2021-12-03,12:15:00,DRY,7.25,5.60,63.0,775.00,771.0
2021-12-03,12:20:00,DRY,8.53,5.27,59.3,775.00,775.3
2021-12-03,12:25:00,DRY,9.15,5.25,48.0,775.00,777.6
2021-12-03,12:30:00,DRY,8.10,5.67,45.3,775.00,781.8
2021-12-03,12:35:00,DRY,9.05,5.90,42.5,775.00,783.6
2021-12-03,12:40:00,DRY,7.33,5.57,39.3,775.00,785.9
2021-12-03,12:45:00,DRY,9.50,5.70,37.5,775.00,787.0
2021-12-03,12:50:00,DRY,5.83,5.63,31.3,775.00,789.1
2021-12-03,12:55:00,DRY,10.70,5.50,36.0,775.00,789.0
2021-12-03,13:00:00,DRY,8.93,5.83,29.0,775.00,790.0
2021-12-03,13:05:00,DRY,8.65,6.20,17.0,775.00,789.8
2021-12-03,13:10:00,DRY,6.57,5.83,25.7,775.00,788.2
2021-12-03,13:15:00,DRY,7.15,6.15,14.5,775.00,787.5
2021-12-03,13:20:00,DRY,7.63,6.17,18.7,775.00,785.2
2021-12-03,13:25:00,DRY,8.65,6.30,22.0,775.00,782.8
2021-12-03,13:30:00,DRY,7.55,6.25,16.0,775.00,780.2
2021-12-03,13:35:00,DRY,6.80,6.60,20.0,775.00,776.2
2021-12-03,13:40:00,DRY,9.27,6.63,13.7,774.33,772.5
2021-12-03,13:45:00,DRY,8.75,6.65,11.0,774.00,768.0
2021-12-03,13:50:00,DRY,8.53,7.13,12.3,774.00,762.6
2021-12-03,13:55:00,DRY,7.55,7.20,14.0,774.00,758.2
2021-12-03,14:00:00,DRY,8.70,6.83,10.0,774.33,751.9
2021-12-03,14:05:00,DRY,8.40,6.90,10.0,774.00,746.0
2021-12-03,14:10:00,DRY,7.30,6.83,13.0,774.00,739.3
2021-12-03,14:15:00,DRY,7.15,7.05,12.5,774.00,731.0
2021-12-03,14:20:00,DRY,5.23,7.53,11.7,774.00,724.4
2021-12-03,14:25:00,DRY,3.95,7.75,9.5,774.00,716.4
2021-12-03,14:30:00,DRY,6.63,7.70,9.3,774.00,709.2
2021-12-03,14:35:00,DRY,5.80,8.15,10.5,774.00,699.4
2021-12-03,14:40:00,DRY,5.90,8.33,12.3,774.00,689.7
2021-12-03,14:45:00,DRY,10.30,7.90,12.0,774.00,682.9
2021-12-03,14:50:00,DRY,5.33,8.20,13.3,774.00,669.9
2021-12-03,14:55:00,DRY,4.10,8.25,12.5,774.00,658.5
2021-12-03,15:00:00,DRY,5.67,8.53,12.3,774.00,645.9
2021-12-03,15:05:00,DRY,6.05,8.35,13.5,774.00,635.0
2021-12-03,15:10:00,DRY,4.87,8.17,14.0,773.67,622.2
2021-12-03,15:15:00,DRY,5.90,8.45,14.5,774.00,609.0
2021-12-03,15:20:00,DRY,3.77,8.57,15.0,774.00,597.1
2021-12-03,15:25:00,DRY,5.10,8.70,13.5,774.00,584.0
2021-12-03,15:30:00,DRY,4.07,8.67,16.3,773.67,570.0
2021-12-03,15:35:00,DRY,5.45,8.80,17.5,774.00,555.7
2021-12-03,15:40:00,DRY,4.17,9.03,20.7,773.67,540.5
2021-12-03,15:45:00,DRY,2.90,9.00,19.5,773.50,524.9
2021-12-03,15:50:00,DRY,4.27,9.00,21.0,773.33,510.6
2021-12-03,15:55:00,DRY,8.40,9.25,18.5,774.00,493.6
2021-12-03,16:00:00,DRY,3.83,9.17,20.3,774.00,478.1
2021-12-03,16:05:00,DRY,4.85,8.95,17.0,773.50,461.9
2021-12-03,16:10:00,DRY,5.00,9.20,20.7,773.67,445.4
2021-12-03,16:15:00,DRY,6.60,9.20,21.0,773.50,426.9
2021-12-03,16:20:00,DRY,3.77,9.50,22.7,774.00,409.1
2021-12-03,16:25:00,DRY,6.95,9.45,22.0,773.50,391.4
2021-12-03,16:30:00,DRY,3.77,9.07,26.0,773.67,372.3
2021-12-03,16:35:00,DRY,7.75,9.10,21.0,773.00,354.4
2021-12-03,16:40:00,DRY,5.30,9.03,24.3,773.33,335.2
2021-12-03,16:45:00,DRY,6.00,8.90,26.0,774.00,316.9
2021-12-03,16:50:00,DRY,5.33,9.07,22.7,774.00,297.0
2021-12-03,16:55:00,DRY,4.30,8.95,19.0,773.50,278.1
2021-12-03,17:00:00,DRY,5.80,8.83,24.3,773.67,258.4
2021-12-03,17:05:00,DRY,5.30,9.05,21.5,774.00,239.6
2021-12-03,17:10:00,DRY,6.60,9.10,20.0,773.67,220.8
2021-12-03,17:15:00,DRY,6.35,9.35,20.5,773.50,203.2
2021-12-03,17:20:00,DRY,8.60,9.30,22.7,774.00,184.3
2021-12-03,17:25:00,DRY,5.60,9.00,22.5,774.00,165.9
2021-12-03,17:30:00,DRY,4.93,8.63,25.3,773.33,146.9
2021-12-03,17:35:00,DRY,5.40,8.55,24.5,773.50,121.2
2021-12-03,17:40:00,DRY,6.27,8.67,23.0,774.00,96.3
2021-12-03,17:45:00,DRY,3.50,8.80,24.5,774.00,74.2
2021-12-03,17:50:00,DRY,6.57,8.80,21.0,774.00,54.8
2021-12-03,17:55:00,DRY,6.70,8.65,18.5,774.00,38.8
2021-12-03,18:00:00,DRY,5.43,8.33,18.3,773.67,25.4
2021-12-03,18:05:00,DRY,4.35,8.85,20.5,774.00,17.0
2021-12-03,18:10:00,DRY,5.83,8.37,19.0,774.00,13.2
2021-12-03,18:15:00,DRY,6.35,8.45,20.0,774.00,7.9
2021-12-03,18:20:00,DRY,6.63,8.33,21.0,774.00,4.9
2021-12-03,18:25:00,DRY,6.90,8.25,21.5,774.00,3.0
2021-12-03,18:30:00,DRY,4.77,8.03,20.0,774.00,1.8
2021-12-03,18:35:00,DRY,9.20,7.70,16.0,774.00,1.7
2021-12-03,18:40:00,,,,,,
2021-12-03,18:45:00,DRY,6.35,8.15,20.5,774.00,2.3
2021-12-03,18:50:00,DRY,5.40,7.90,19.3,774.00,0.9
2021-12-03,18:55:00,DRY,6.35,8.00,19.5,774.00,1.0
2021-12-03,19:00:00,DRY,6.53,7.83,20.7,774.00,1.8
2021-12-03,19:05:00,DRY,6.20,7.80,26.0,774.00,1.1
2021-12-03,19:10:00,DRY,4.83,7.73,22.7,774.00,1.4
2021-12-03,19:15:00,DRY,7.50,7.35,30.0,774.00,1.1
2021-12-03,19:20:00,DRY,5.93,7.43,30.0,774.00,1.1
2021-12-03,19:25:00,DRY,5.25,7.20,31.0,774.00,1.2
2021-12-03,19:30:00,DRY,6.93,7.53,26.7,774.00,1.2
2021-12-03,19:35:00,DRY,5.10,6.65,43.0,774.00,1.1
2021-12-03,19:40:00,DRY,7.80,6.80,40.0,774.00,1.1
2021-12-03,19:45:00,DRY,6.40,7.45,33.5,774.00,1.1
2021-12-03,19:50:00,DRY,7.23,7.83,25.7,774.00,1.3
2021-12-03,19:55:00,DRY,7.90,8.05,23.5,774.00,2.1
2021-12-03,20:00:00,DRY,5.67,8.07,23.0,774.00,1.2
2021-12-03,20:05:00,DRY,5.90,8.40,24.0,774.50,1.0
2021-12-03,20:10:00,DRY,6.07,8.50,25.0,774.67,1.2
2021-12-03,20:15:00,DRY,6.40,8.40,24.5,775.00,1.6
2021-12-03,20:20:00,DRY,9.63,8.40,25.7,774.67,1.1
2021-12-03,20:25:00,DRY,4.20,8.15,26.5,775.00,1.6
2021-12-03,20:30:00,DRY,8.23,8.43,22.7,775.00,0.9
2021-12-03,20:35:00,DRY,8.15,8.30,24.5,775.00,1.4
2021-12-03,20:40:00,DRY,10.27,8.50,24.3,775.00,1.0
2021-12-03,20:45:00,DRY,7.10,8.45,25.5,775.00,1.1
2021-12-03,20:50:00,DRY,6.23,8.03,26.3,775.00,1.1
2021-12-03,20:55:00,DRY,7.90,8.20,25.0,775.00,1.0
2021-12-03,21:00:00,DRY,6.10,8.43,24.3,775.00,1.8